NOAA 16 DEB, 41510

Orbit data source: Space-Track

NOAA 16 DEB, 41510 is space debris in SSO originally from a launch on Thu, 21 Sep 2000 UTC launched from the Air Force Western Test Range (AFWTR). Debris objects in space refer to the collection of defunct objects orbiting the Earth. Examples of debris include non-operational satellites, rocket bodies, and fragments generated from explosions, collisions, or faulty payload assembly.

Loading next visibility...
Identifier
41510, 2000-055MJ
Orbit
SSO
Last TLE update
2 days ago
Origin
Manufacturer
Unknown
Mission
Spacecraft
Bus & Motor
Unknown
Mass
Unknown
Launch date (UTC)
2000-09-21 (25 years ago)
Launch vehicle
Unknown
Launch site
Air Force Western Test Range (AFWTR)
Object type
Payload
Rocket body
Debris
Shape & HBR
Unknown
Radar Cross Section
Small (<0.1 m²)

Expand to show TLE details & history

TLE from 2 days ago
0 NOAA 16 DEB
1 41510U 00055MJ  25180.46896132  .00002165  00000-0  91404-3 0  9991
2 41510  98.7651 267.9968 0021989 320.4548  39.5026 14.26541495479041
Epoch: 2025-06-29T11:15Z
TLE epoch observation values (Epoch: 2025-06-29T11:15:18.258Z)
Latitude
-0.00008°
Longitude
-178.62194°
Altitude
794.063 km
Speed
7.463 km/s
True Right ascension
17h 51m 59s
True Declination
0° 00' 00"
Sunlit
Object was in full shadow at epoch
Visualization orbit readout
Latitude
73.1793°
Longitude
33.56881°
Altitude
829.36 km
Speed
7.438 km/s
Apparent Right ascension
04h 57m 21s
Apparent Declination
24° 37' 55"
Sunlit
Object is in daylight
Visualization observer readout
Local Sidereal Time
15:46:01
Azimuth
342.347° N
Elevation
-23.344°
Doppler factor
1
Orbital elements
Apogee altitude
816.252 km
Perigee altitude
784.682 km
Semi-major axis
7,178.604 km
Eccentricity
0.0022
Inclination
98.7651°
RAAN
267.9968°
Arg. of periapsis
320.4548°
True anomaly
Unknown
Mean anomaly
39.5026°
Eccentric anomaly
Unknown
Mean motion
3.56848 °/min
Orbital period
100.88 mins
BSTAR
0.00091404
Loading maneuver chart data...
Loading SW <> Apogee altitude chart data...
Loading historical data...
Loading historical data...
Loading historical data...
Loading historical data...
Loading historical data...
Loading historical data...
Loading historical data...

NOAA 16 DEB Visibility forecast

Observer location: undefined°, undefined°

Span
Click to sort rows by Start time (UTC) header in descending order
Start Az.
Max El. time (UTC)
Max El. Az.
Max El.
End time (UTC)
End Az.
9 mins2025-07-01 05:27:36.266Z148.641° SSE2025-07-01 05:31:36.266Z88.766° E40.381°2025-07-01 05:36:36.266Z355.234° N
4 mins2025-07-01 07:10:36.266Z249.699° W2025-07-01 07:11:36.266Z262.806° W15.399°2025-07-01 07:14:36.266Z300.384° NW
6 mins2025-07-01 17:44:36.266Z58.174° ENE2025-07-01 17:46:36.266Z86.989° E21.454°2025-07-01 17:50:36.266Z141.789° SSE
8 mins2025-07-01 19:23:36.266Z350.754° N2025-07-01 19:26:36.266Z299.173° NW33.934°2025-07-01 19:31:36.266Z221.749° SW
|